Location: Pebble Beach Sunset Acres
(33.0837°N, 96.4508°W)
Time: 16:07:13
(UTC+00:00)

DELTA 2 R/B (1) - Pass Details

Date: 02 July 2022
Orbit: 790 x 802 km, 39.6° (Epoch: 18 August)

Event Time Altitude Azimuth Distance (km) Brightness Sun altitude
Rises 04:34:57 0° 282° (WNW) 3,297 7.4 -27.6°
Reaches altitude 10° 04:38:01 10° 266° (W) 2,366 6.3 -27.9°
Enters shadow 04:40:31 18° 242° (WSW) 1,853 5.4 -28.1°
